Regional Weather Roundup
Issued by NWS

Home | Current Version | Previous Version | Text Only | Print | Product List | Glossary On
Versions: 1 2 3 4 5 6 7 8 9 10 11 12 13 14 15 16 17 18 19 20 21 22 23 24 25 26 27 28 29 30 31 32 33 34 35 36 37 38 39 40 41 42 43 44 45 46 47 48 49 50
210
ASUS42 KKEY 300010
RWRKEY

FLORIDA REGIONAL WEATHER ROUNDUP FOR THE FLORIDA KEYS
NATIONAL WEATHER SERVICE KEY WEST FLORIDA
800 PM EDT WED MAR 29 2017

...SOUTH FLORIDA AND THE KEYS...

CITY           SKY/WX    TMP DP  RH WIND       PRES   REMARKS
FORT MYERS     PTCLDY    79  64  60 W8        30.00R
SW REGIONAL AP MOCLDY    77  63  61 W8        30.00R
NAPLES         PTCLDY    75  68  78 W7        30.01R
MIAMI          PTCLDY    77  63  61 SE7       30.01R
WEST KENDALL   CLEAR     75  63  66 SE8       30.00R
HOMESTEAD      CLEAR     74  66  76 E5        30.00R
MARATHON       CLEAR     78  66  66 E6        29.99R
BOCA CHICA NAS PTCLDY    76  64  66 E9        29.98R
KEY WEST INTL  CLEAR     77  66  68 E8        29.99R

...INTERNATIONAL WEATHER...

CITY           SKY/WX    TMP DP  RH WIND       PRES   REMARKS
NASSAU BAHAMAS PTCLDY    75  64  69 CALM      30.02S
CANCUN MEXICO  PTCLDY    79  70  73 SE12      29.88S
COZUMEL MEXICO PTCLDY    81  70  69 SE12      29.86R

ADJACENT COASTAL WATERS...

STATION/POSITION TIME  SKY/WX   TEMP    WIND        PRES    WAVE
                                AIR SEA DIR/SP/G            HT/PER
                 (UTC)          (F)     (DEG/KT/KT) (MB)    (FT/S)
PULASKI SHOAL LI 0000            76      90/  7/  8 1015.4R
SAND KEY         2350            77     130/ 11/ 12 1015.6R
LONG KEY         2300            78 80  130/ 10/ 10 1015.4F
MOLASSES REEF    0000            76 79   50/  2/  4 1016.2R
FOWEY ROCKS      0000            76 78   90/  5/  6 1016.7R
Buoy 42097       2330                                 N/A     2/ 6

$$




USA.gov is the U.S. government's official web portal to all federal, state and local government web resources and services.